Palo Verde, AZ

5:57 AM MST on July 29, 2016 (GMT -0700)
Buckeye Municipal

Weather History for KBXK - March, 2013

Change the Weather History Date:

Thursday, March 21, 2013

  Actual Average (KGYR) Record (KGYR)
Temperature  
Mean Temperature 72 °F -  
Max Temperature 84 °F 79 °F 95 °F (1997)
Min Temperature 59 °F 51 °F 42 °F (2012)
Cooling Degree Days 6    
Growing Degree Days 22 (Base 50)    
Moisture  
Dew Point 37 °F    
Average Humidity 30    
Maximum Humidity 45    
Minimum Humidity 15    
Precipitation  
Precipitation 0.00 in - - ()
Sea Level Pressure  
Sea Level Pressure 29.74 in    
Wind  
Wind Speed 4 mph (South)    
Max Wind Speed 9 mph    
Max Gust Speed -    
Visibility 10 miles    
Events      
Averages and records for this station are not official NWS values.
T = Trace of Precipitation, MM = Missing Value Source: NWS Daily Summary

Daily Weather History Graph

Daily Weather History Graph

Search for Another Location

Airport or City:

Trip Planner

Search our weather history database for the weather conditions in past years. The results will help you decide how hot, cold, wet, or windy it might be!

Date:

Astronomy

Mar. 21, 2013 Rise Set
Actual Time 6:32 AM MST 6:43 PM MST
Civil Twilight 6:07 AM MST 7:08 PM MST
Nautical Twilight 5:38 AM MST 7:37 PM MST
Astronomical Twilight 5:09 AM MST 8:06 PM MST
Moon 1:30 PM MST (3/21) 2:42 AM MST (3/21)
Length of Visible Light 13h 00m
Length of Day
12h 10m
Waxing Gibbous, 69% of the Moon is Illuminated
Mar 21
Waxing Gibbous
Mar 27
Full
Apr 2
Last Quarter
Apr 10
New
Apr 18
First Quarter

Hourly Weather History & Observations

Time (MST) Temp. Dew Point Humidity Pressure Visibility Wind Dir Wind Speed Gust Speed Precip Events Conditions
12:15 AM 68.0 °F 35.6 °F 30% 29.79 in 10.0 mi West 4.6 mph - N/A   Overcast
12:35 AM 69.8 °F 35.6 °F 28% 29.79 in 10.0 mi Calm Calm - N/A   Overcast
12:55 AM 69.8 °F 35.6 °F 28% 29.79 in 10.0 mi Calm Calm - N/A   Overcast
1:15 AM 68.0 °F 37.4 °F 33% 29.79 in 10.0 mi Calm Calm - N/A   Overcast
1:35 AM 68.0 °F 37.4 °F 33% 29.79 in 10.0 mi ESE 3.5 mph - N/A   Overcast
1:55 AM 68.0 °F 35.6 °F 30% 29.78 in 10.0 mi SSW 4.6 mph - N/A   Overcast
2:15 AM 66.2 °F 37.4 °F 35% 29.78 in 10.0 mi WSW 3.5 mph - N/A   Overcast
2:55 AM 64.4 °F 37.4 °F 37% 29.78 in 10.0 mi Calm Calm - N/A   Overcast
3:15 AM 64.4 °F 37.4 °F 37% 29.77 in 10.0 mi NW 3.5 mph - N/A   Mostly Cloudy
3:35 AM 64.4 °F 37.4 °F 37% 29.76 in 10.0 mi WNW 3.5 mph - N/A   Overcast
3:55 AM 64.4 °F 37.4 °F 37% 29.76 in 10.0 mi NW 3.5 mph - N/A   Overcast
4:15 AM 64.4 °F 37.4 °F 37% 29.76 in 10.0 mi NE 4.6 mph - N/A   Mostly Cloudy
4:35 AM 64.4 °F 37.4 °F 37% 29.75 in 10.0 mi NE 4.6 mph - N/A   Overcast
4:55 AM 62.6 °F 39.2 °F 42% 29.76 in 10.0 mi ESE 3.5 mph - N/A   Mostly Cloudy
5:15 AM 62.6 °F 39.2 °F 42% 29.76 in 10.0 mi Calm Calm - N/A   Mostly Cloudy
5:35 AM 62.6 °F 37.4 °F 39% 29.76 in 10.0 mi East 4.6 mph - N/A   Overcast
5:55 AM 62.6 °F 37.4 °F 39% 29.76 in 10.0 mi ENE 3.5 mph - N/A   Overcast
6:15 AM 62.6 °F 37.4 °F 39% 29.77 in 10.0 mi NE 5.8 mph - N/A   Mostly Cloudy
6:35 AM 60.8 °F 37.4 °F 42% 29.77 in 10.0 mi NNE 4.6 mph - N/A   Partly Cloudy
6:55 AM 59.0 °F 37.4 °F 45% 29.78 in 10.0 mi North 4.6 mph - N/A   Clear
7:15 AM 59.0 °F 37.4 °F 45% 29.79 in 10.0 mi NNE 3.5 mph - N/A   Clear
7:35 AM 62.6 °F 37.4 °F 39% 29.79 in 10.0 mi East 4.6 mph - N/A   Clear
7:55 AM 64.4 °F 37.4 °F 37% 29.79 in 10.0 mi Calm Calm - N/A   Clear
8:15 AM 64.4 °F 37.4 °F 37% 29.79 in 9.0 mi SE 3.5 mph - N/A   Clear
8:35 AM 64.4 °F 41.0 °F 42% 29.80 in 8.0 mi Calm Calm - N/A   Clear
8:55 AM 66.2 °F 37.4 °F 35% 29.80 in 9.0 mi Calm Calm - N/A   Clear
9:15 AM 68.0 °F 41.0 °F 37% 29.80 in 5.0 mi Calm Calm - N/A   Clear
9:35 AM 69.8 °F 39.2 °F 33% 29.80 in 8.0 mi Calm Calm - N/A   Clear
9:55 AM 71.6 °F 35.6 °F 27% 29.79 in 8.0 mi SSE 3.5 mph - N/A   Clear
10:15 AM 73.4 °F 35.6 °F 25% 29.79 in 10.0 mi SW 5.8 mph - N/A   Clear
10:35 AM 75.2 °F 35.6 °F 24% 29.80 in 10.0 mi SW 4.6 mph - N/A   Clear
10:55 AM 75.2 °F 35.6 °F 24% 29.80 in 10.0 mi SW 6.9 mph - N/A   Clear
11:15 AM 75.2 °F 35.6 °F 24% 29.80 in 10.0 mi SSW 4.6 mph - N/A   Clear
11:35 AM 75.2 °F 35.6 °F 24% 29.80 in 10.0 mi WSW 6.9 mph - N/A   Clear
11:55 AM 77.0 °F 35.6 °F 22% 29.79 in 10.0 mi West 4.6 mph - N/A   Clear
12:15 PM 77.0 °F 35.6 °F 22% 29.79 in 10.0 mi SSW 6.9 mph - N/A   Clear
12:35 PM 80.6 °F 35.6 °F 20% 29.78 in 10.0 mi SW 8.1 mph - N/A   Clear
12:55 PM 80.6 °F 33.8 °F 18% 29.77 in 10.0 mi SW 6.9 mph - N/A   Clear
1:15 PM 80.6 °F 32.0 °F 17% 29.76 in 10.0 mi Calm Calm - N/A   Clear
1:35 PM 82.4 °F 32.0 °F 16% 29.75 in 10.0 mi South 3.5 mph - N/A   Clear
1:55 PM 80.6 °F 32.0 °F 17% 29.74 in 10.0 mi South 4.6 mph - N/A   Clear
2:15 PM 82.4 °F 32.0 °F 16% 29.73 in 10.0 mi WSW 6.9 mph - N/A   Clear
2:35 PM 82.4 °F 32.0 °F 16% 29.71 in 10.0 mi Calm Calm - N/A   Clear
2:55 PM 82.4 °F 32.0 °F 16% 29.71 in 10.0 mi South 5.8 mph - N/A   Clear
3:15 PM 84.2 °F 35.6 °F 18% 29.70 in 10.0 mi South 8.1 mph - N/A   Clear
3:35 PM 84.2 °F 33.8 °F 16% 29.70 in 10.0 mi South 8.1 mph - N/A   Clear
3:55 PM 82.4 °F 33.8 °F 17% 29.69 in 10.0 mi SSE 9.2 mph - N/A   Clear
4:15 PM 84.2 °F 32.0 °F 15% 29.68 in 10.0 mi South 9.2 mph - N/A   Clear
4:35 PM 84.2 °F 35.6 °F 18% 29.68 in 10.0 mi South 9.2 mph - N/A   Clear
4:55 PM 82.4 °F 33.8 °F 17% 29.68 in 10.0 mi South 6.9 mph - N/A   Clear
5:15 PM 82.4 °F 33.8 °F 17% 29.67 in 10.0 mi South 8.1 mph - N/A   Clear
5:35 PM 80.6 °F 41.0 °F 24% 29.67 in 10.0 mi SSE 9.2 mph - N/A   Clear
5:55 PM 77.0 °F 42.8 °F 29% 29.68 in 10.0 mi SSE 9.2 mph - N/A   Clear
6:15 PM 75.2 °F 41.0 °F 29% 29.67 in 10.0 mi SSE 9.2 mph - N/A   Clear
6:35 PM 75.2 °F 39.2 °F 27% 29.67 in 5.0 mi South 6.9 mph - N/A   Clear
6:55 PM 73.4 °F 41.0 °F 31% 29.67 in 9.0 mi South 6.9 mph - N/A   Clear
7:15 PM 71.6 °F 39.2 °F 31% 29.68 in 9.0 mi South 6.9 mph - N/A   Partly Cloudy
7:35 PM 71.6 °F 39.2 °F 31% 29.68 in 10.0 mi SSW 5.8 mph - N/A   Scattered Clouds
7:55 PM 71.6 °F 37.4 °F 29% 29.69 in 10.0 mi South 6.9 mph - N/A   Mostly Cloudy
8:15 PM 71.6 °F 35.6 °F 27% 29.69 in 10.0 mi SSW 9.2 mph - N/A   Mostly Cloudy
8:35 PM 69.8 °F 39.2 °F 33% 29.70 in 10.0 mi South 4.6 mph - N/A   Partly Cloudy
8:55 PM 68.0 °F 37.4 °F 33% 29.70 in 10.0 mi Calm Calm - N/A   Clear
9:15 PM 68.0 °F 37.4 °F 33% 29.70 in 10.0 mi Calm Calm - N/A   Clear
9:35 PM 68.0 °F 37.4 °F 33% 29.70 in 10.0 mi South 3.5 mph - N/A   Partly Cloudy
9:55 PM 68.0 °F 37.4 °F 33% 29.70 in 10.0 mi Calm Calm - N/A   Mostly Cloudy
10:15 PM 64.4 °F 37.4 °F 37% 29.70 in 10.0 mi NE 3.5 mph - N/A   Scattered Clouds
10:35 PM 64.4 °F 35.6 °F 34% 29.70 in 10.0 mi Calm Calm - N/A   Mostly Cloudy
10:55 PM 64.4 °F 35.6 °F 34% 29.70 in 10.0 mi Calm Calm - N/A   Mostly Cloudy
11:15 PM 62.6 °F 35.6 °F 37% 29.70 in 10.0 mi NNE 4.6 mph - N/A   Mostly Cloudy
11:35 PM 62.6 °F 35.6 °F 37% 29.69 in 10.0 mi North 3.5 mph - N/A   Scattered Clouds
11:55 PM 62.6 °F 35.6 °F 37% 29.69 in 10.0 mi NNE 3.5 mph - N/A   Scattered Clouds